Hourly Data Report for April 02, 2017

MIRAMICHI RCS
NEW BRUNSWICK

47°00'34.000" N
65°27'54.000" W
33.00 m
8100989
71744
ACQ

Download Data

Hourly Data (April 2017)
Hourly Data Report for April 2, 2017
TIME
LST
Temp Definition
°C
Dew Point Definition
°C
Rel Hum Definition
%
Precip. Amount Definition
mm

Wind Dir Definition
10's deg

Wind Spd Definition
km/h
Visibility Definition
km
Stn Press Definition
kPa
Hmdx Definition


Wind Chill Definition


Weather Definition


00:00 -2.3 -4.2 87 0.0 5 6   101.26   -5 LegendNANA
01:00 -2.4 -4.4 86 0.0 3 4   101.21   -4 LegendNANA
02:00 -2.4 -4.4 86 0.0 3 5   101.19   -4 LegendNANA
03:00 -2.4 -4.5 86 0.0 2 5   101.16   -4 LegendNANA
04:00 -2.3 -4.5 85 0.0 1 4   101.11   -4 LegendNANA
05:00 -2.3 -4.7 84 0.0 36 5   101.11   -4 LegendNANA
06:00 -2.4 -4.6 85 0.0 2 3   101.09   -4 LegendNANA
07:00 -2.3 -4.9 82 0.0 2 4   101.08   -4 LegendNANA
08:00 -1.8 -4.6 81 0.0 3 5   101.09   -4 LegendNANA
09:00 -1.1 -4.9 75 0.0 1 5   101.08   -3 LegendNANA
10:00 -0.6 -4.0 77 0.0 10 6   101.06   -3 LegendNANA
11:00 0.4 -3.9 73 0.0 13 5   101.02     LegendNANA
12:00 1.3 -3.9 68 0.0 11 7   100.94     LegendNANA
13:00 1.9 -3.2 69 0.0 10 10   100.86     LegendNANA
14:00 2.3 -3.4 66 0.0 10 13   100.80     LegendNANA
15:00 1.7 -3.0 71 0.0 10 17   100.75     LegendNANA
16:00 1.3 -3.7 70 0.0 8 19   100.76     LegendNANA
17:00 0.9 -3.9 70 0.0 7 18   100.76     LegendNANA
18:00 0.2 -4.2 72 0.0 7 18   100.79     LegendNANA
19:00 -1.4 -3.7 84 0.0 5 9   100.81   -5 LegendNANA
20:00 -2.2 -3.7 90 0.0 5 6   100.84   -5 LegendNANA
21:00 -2.5 -3.4 94 0.0 4 7   100.86   -5 LegendNANA
22:00 -3.2 -3.7 97 0.0 2 5   100.88   -5 LegendNANA
23:00 -3.9 -4.3 97 0.0   0   100.86     LegendNANA

Notes on Data Quality.

Legend

  • E = Estimated
  • M = Missing
  • NA = Not Available*
  • [empty] = Indicates an unobserved value
Date modified: